Showing default

SECOR 9 (EGRS 9), 2861

Orbit data source: Space-Track

SECOR 9 (EGRS 9), 2861 is an American payload satellite in LEO that was launched on Thu, 29 Jun 1967 UTC via a THOR BURNER 2 launch vehicle from the Air Force Western Test Range (AFWTR). Payload-class satellites include a variety of spacecraft equipped with specific instruments for various scientific and technological missions. These include communications satellites like Starlink; space stations such as the ISS; scientific satellites like the Hubble; Earth observation satellites from companies like Planet Labs, Umbra, and HawkEye 360; GPS; miniature CubeSats for education and research; and military/defense satellites.

Loading next visibility...
Identifier
2861, 1967-065A
Orbit
LEO
Country
Flag of USUS
Related business
Manufacturer
ITT
Mission
Spacecraft
Bus & Motor
SECOR, Unknown motor
Mass
18 kg wet, 18 kg dry
Launch date (UTC)
1967-06-29 (59 years ago)
Launch vehicle
THOR BURNER 2
Launch site
Air Force Western Test Range (AFWTR)
Object type
Payload
Rocket body
Debris
Shape & HBR
Unknown
Radar Cross Section
Medium (>0.1 m² and <1 m²)

Expand to show TLE details & history
Last TLE update: 3 days ago

TLE from 3 days ago
0 SECOR 9 (EGRS 9)
1 02861U 67065A   26032.72177687 -.00000002  00000-0 -19375-2 0  9990
2 02861  89.9954 314.1811 0071961 231.2360 128.2030  8.36660793789720
Epoch: 2026-02-01T17:19Z
TLE epoch observation values (Epoch: 2026-02-01T17:19:21.521Z)
Latitude
-0.00007°
Longitude
-77.58592°
Altitude
3,919.445 km
Speed
6.208 km/s
True Right ascension
20h 56m 43s
True Declination
0° 00' 00"
Sunlit
Object was in daylight at epoch
Visualization orbit readout
Latitude
Unknown
Longitude
Unknown
Altitude
Unknown
Speed
Unknown
Apparent Right ascension
Unknown
Apparent Declination
Unknown
Sunlit
N/A
Visualization observer readout
Local Sidereal Time
12:04:04
Azimuth
Unknown
Elevation
Unknown
Doppler factor
Unknown
Orbital elements
Apogee altitude
3,942.951 km
Perigee altitude
3,795.469 km
Semi-major axis
10,247.347 km
Eccentricity
0.0072
Inclination
89.9954°
RAAN
314.1811°
Arg. of periapsis
231.236°
True anomaly
128.8474°
Mean anomaly
128.203°
Eccentric anomaly
128.52556°
Mean motion
2.09231 °/min
Orbital period
172.06 mins
BSTAR
-0.0019375
Loading maneuver chart data...
Computing Atmospheric mass density...
Loading historical data...
Loading historical data...
Loading historical data...
Loading historical data...
Loading historical data...
Loading historical data...
Loading historical data...
Other satellites on launch #65 in the year 1967 (1967-06-29 UTC)

Documentation

Showing up to 5 results
|